IK5WWP Weather Reports


Display with metric or nautical units.
time (UTC)temp
F
wind
direction
speed
MPH
gust
MPH
rain 1hr
in
rain 24hr
in
rain mn
in
humidity
%
barometer
mb
20260906181827 84 14 0.0 2.0 0.00 0.00 0.00 64 1018.0
20260906180927 85 6 0.0 2.0 0.00 0.00 0.00 64 1018.1
20260906180028 85 356 0.0 2.0 0.00 0.00 0.00 64 1017.9
20260906175127 85 8 0.0 2.0 0.00 0.00 0.00 63 1018.1
20260906174227 86 4 1.0 2.0 0.00 0.00 0.00 63 1017.7
20260906173327 87 8 0.0 2.0 0.00 0.00 0.00 62 1017.5
20260906172427 88 9 0.0 2.0 0.00 0.00 0.00 60 1017.8
20260906170627 90 43 1.0 2.0 0.00 0.00 0.00 57 1017.6
20260906165727 91 22 0.0 2.0 0.00 0.00 0.00 56 1017.6
20260906164827 91 33 0.0 2.0 0.00 0.00 0.00 55 1017.6
20260906163927 92 47 0.0 2.0 0.00 0.00 0.00 54 1017.6
20260906163027 92 83 1.0 2.0 0.00 0.00 0.00 52 1017.6
20260906161227 93 67 1.0 6.0 0.00 0.00 0.00 50 1017.5
20260906160327 94 90 0.0 4.0 0.00 0.00 0.00 48 1017.6
20260906155427 95 133 0.0 2.0 0.00 0.00 0.00 40 1017.5
20260906154527 95 122 2.0 4.0 0.00 0.00 0.00 38 1017.4
20260906152727 96 150 2.0 2.0 0.00 0.00 0.00 39 1017.5
20260906151827 96 152 0.0 2.0 0.00 0.00 0.00 38 1017.4
20260906150927 96 149 0.0 2.0 0.00 0.00 0.00 40 1017.6
20260906150027 95 156 1.0 4.0 0.00 0.00 0.00 41 1017.6
20260906145127 95 135 1.0 4.0 0.00 0.00 0.00 41 1017.5
20260906144227 95 135 2.0 2.0 0.00 0.00 0.00 41 1017.7
20260906142427 95 144 2.0 4.0 0.00 0.00 0.00 42 1017.9
20260906135727 96 148 2.0 4.0 0.00 0.00 0.00 43 1017.6
20260906133927 96 144 1.0 4.0 0.00 0.00 0.00 42 1017.9
20260906133027 96 136 2.0 4.0 0.00 0.00 0.00 44 1018.1
20260906132127 95 162 0.0 4.0 0.00 0.00 0.00 43 1017.9
20260906131227 96 159 0.0 4.0 0.00 0.00 0.00 42 1018.3
20260906130327 96 151 2.0 4.0 0.00 0.00 0.00 43 1018.1
20260906125427 95 134 2.0 4.0 0.00 0.00 0.00 43 1018.0
20260906124528 96 128 2.0 4.0 0.00 0.00 0.00 44 1018.2
20260906123627 95 136 2.0 4.0 0.00 0.00 0.00 44 1018.5
20260906122727 95 139 2.0 4.0 0.00 0.00 0.00 43 1018.2
20260906121827 95 135 0.0 4.0 0.00 0.00 0.00 45 1018.3
20260906120927 95 136 2.0 4.0 0.00 0.00 0.00 46 1018.4
20260906120027 94 130 2.0 4.0 0.00 0.00 0.00 46 1018.4
20260906115127 94 140 0.0 4.0 0.00 0.00 0.00 47 1018.6
20260906114227 94 135 2.0 4.0 0.00 0.00 0.00 47 1018.3
20260906113327 94 128 0.0 4.0 0.00 0.00 0.00 47 1018.6
20260906111527 93 143 1.0 4.0 0.00 0.00 0.00 48 1018.6
20260906110627 93 147 2.0 4.0 0.00 0.00 0.00 47 1018.8
20260906104827 92 137 1.0 4.0 0.00 0.00 0.00 50 1018.7
20260906103027 91 139 0.0 4.0 0.00 0.00 0.00 52 1018.9
20260906102127 91 154 1.0 4.0 0.00 0.00 0.00 54 1019.1
20260906101227 91 129 2.0 4.0 0.00 0.00 0.00 53 1019.3
20260906100328 90 153 1.0 4.0 0.00 0.00 0.00 55 1019.2
20260906095428 90 150 1.0 4.0 0.00 0.00 0.00 55 1019.2
20260906093628 88 120 1.0 4.0 0.00 0.00 0.00 58 1019.4
20260906092727 88 149 1.0 4.0 0.00 0.00 0.00 57 1019.3
20260906091828 87 131 2.0 4.0 0.00 0.00 0.00 58 1019.4
20260906090927 88 109 2.0 4.0 0.00 0.00 0.00 57 1019.6
20260906090028 87 149 1.0 2.0 0.00 0.00 0.00 60 1019.5
20260906085128 86 145 2.0 4.0 0.00 0.00 0.00 61 1019.6
20260906084227 85 141 1.0 4.0 0.00 0.00 0.00 62 1019.5
20260906083327 84 116 2.0 4.0 0.00 0.00 0.00 63 1019.2
20260906082427 83 113 0.0 2.0 0.00 0.00 0.00 66 1019.5
20260906075728 79 29 0.0 2.0 0.00 0.00 0.00 72 1019.2
20260906074827 78 90 0.0 2.0 0.00 0.00 0.00 74 1019.3
20260906073927 77 90 1.0 2.0 0.00 0.00 0.00 74 1019.4
20260906073028 77 90 0.0 2.0 0.00 0.00 0.00 75 1019.3
20260906072128 76 0 0.0 0.0 0.00 0.00 0.00 77 1019.1
20260906070328 74 0 0.0 0.0 0.00 0.00 0.00 78 1019.0
20260906065428 74 0 0.0 0.0 0.00 0.00 0.00 80 1019.1
20260906064528 72 357 0.0 2.0 0.00 0.00 0.00 81 1019.1
20260906063628 71 46 0.0 2.0 0.00 0.00 0.00 83 1018.9
20260906062728 71 45 0.0 2.0 0.00 0.00 0.00 84 1018.9
20260906061828 70 0 0.0 0.0 0.00 0.00 0.00 85 1019.0
20260906060928 69 0 0.0 0.0 0.00 0.00 0.00 86 1018.9
20260906060028 69 0 0.0 0.0 0.00 0.00 0.00 87 1018.7
20260906054228 69 68 0.0 2.0 0.00 0.00 0.00 88 1018.6
20260906053328 68 53 0.0 2.0 0.00 0.00 0.00 88 1018.4
20260906052428 68 45 0.0 2.0 0.00 0.00 0.00 88 1018.3
20260906051528 69 68 0.0 2.0 0.00 0.00 0.00 88 1018.2
20260906050628 68 68 0.0 2.0 0.00 0.00 0.00 88 1018.4
20260906045728 68 46 0.0 2.0 0.00 0.00 0.00 88 1018.5
20260906044828 68 46 0.0 2.0 0.00 0.00 0.00 88 1018.5
20260906043028 69 0 0.0 0.0 0.00 0.00 0.00 88 1018.3
20260906042128 69 0 0.0 0.0 0.00 0.00 0.00 88 1018.1
20260906041228 69 0 0.0 0.0 0.00 0.00 0.00 88 1018.3
20260906040328 69 0 0.0 0.0 0.00 0.00 0.00 87 1017.9
20260906035428 69 46 0.0 2.0 0.00 0.00 0.00 87 1018.4
20260906033628 69 0 0.0 0.0 0.00 0.00 0.00 87 1018.0
20260906032728 69 0 0.0 0.0 0.00 0.00 0.00 87 1018.0
20260906031828 69 0 0.0 0.0 0.00 0.00 0.00 87 1018.1
20260906030028 69 0 0.0 0.0 0.00 0.00 0.00 87 1017.9
20260906025128 69 0 0.0 0.0 0.00 0.00 0.00 86 1017.9
20260906024228 69 45 0.0 2.0 0.00 0.00 0.00 86 1018.0
20260906023328 70 45 0.0 2.0 0.00 0.00 0.00 86 1017.9
20260906022428 70 45 0.0 2.0 0.00 0.00 0.00 86 1018.2
20260906021528 70 0 0.0 0.0 0.00 0.00 0.00 86 1018.2
20260906020628 70 0 0.0 0.0 0.00 0.00 0.00 86 1018.0
20260906014828 70 46 0.0 2.0 0.00 0.00 0.00 86 1018.0
20260906013928 70 45 0.0 2.0 0.00 0.00 0.00 85 1018.0
20260906013028 70 45 0.0 2.0 0.00 0.00 0.00 85 1017.9
20260906012128 70 46 0.0 2.0 0.00 0.00 0.00 85 1017.9
20260906011228 71 0 0.0 0.0 0.00 0.00 0.00 85 1017.9
20260906010328 71 46 0.0 2.0 0.00 0.00 0.00 85 1017.9
20260906005428 71 45 0.0 2.0 0.00 0.00 0.00 84 1017.7
20260906004528 71 45 0.0 2.0 0.00 0.00 0.00 84 1017.7
20260906003628 71 46 0.0 2.0 0.00 0.00 0.00 84 1017.7
20260906001828 71 45 0.0 2.0 0.00 0.00 0.00 83 1017.9
20260906000928 72 45 0.0 2.0 0.00 0.00 0.00 83 1017.9
20260906000028 72 46 0.0 2.0 0.00 0.00 0.00 82 1018.0
20260905235128 73 0 0.0 0.0 0.00 0.00 0.00 81 1017.6
20260905234228 73 41 0.0 2.0 0.00 0.00 0.00 81 1017.7
20260905233328 73 45 0.0 2.0 0.00 0.00 0.00 81 1017.8
20260905232429 73 46 1.0 2.0 0.00 0.00 0.00 81 1017.8
20260905230628 73 37 0.0 2.0 0.00 0.00 0.00 81 1018.0
20260905225728 73 22 0.0 2.0 0.00 0.00 0.00 81 1018.0
20260905224828 73 33 2.0 4.0 0.00 0.00 0.00 81 1018.1
20260905222128 73 45 1.0 2.0 0.00 0.00 0.00 81 1017.9
20260905221228 74 28 1.0 2.0 0.00 0.00 0.00 80 1018.0
20260905214518 74 26 0.0 2.0 0.00 0.00 0.00 79 1017.8
20260905212718 74 19 2.0 2.0 0.00 0.00 0.00 79 1017.7
20260905211818 74 22 1.0 2.0 0.00 0.00 0.00 80 1017.6
20260905210918 74 23 1.0 2.0 0.00 0.00 0.00 80 1017.5
20260905210018 74 30 1.0 2.0 0.00 0.00 0.00 80 1017.7
20260905205118 74 42 0.0 2.0 0.00 0.00 0.00 80 1017.5
20260905204218 74 42 1.0 2.0 0.00 0.00 0.00 80 1017.5
20260905203318 74 45 1.0 2.0 0.00 0.00 0.00 80 1017.4
20260905202418 75 41 1.0 2.0 0.00 0.00 0.00 79 1017.4
20260905201519 75 43 1.0 2.0 0.00 0.00 0.00 79 1017.3
20260905194818 76 48 1.0 2.0 0.00 0.00 0.00 77 1017.4
20260905193918 77 52 0.0 2.0 0.00 0.00 0.00 76 1017.1
20260905193018 77 45 0.0 2.0 0.00 0.00 0.00 76 1017.2
20260905192118 76 45 0.0 2.0 0.00 0.00 0.00 76 1017.2
20260905191218 77 42 0.0 2.0 0.00 0.00 0.00 76 1016.9
20260905190318 77 36 0.0 2.0 0.00 0.00 0.00 76 1016.8
20260905185418 77 46 1.0 2.0 0.00 0.00 0.00 75 1016.8
20260905184518 78 48 1.0 2.0 0.00 0.00 0.00 75 1016.6
20260905183618 79 45 0.0 2.0 0.00 0.00 0.00 73 1016.4